Date String (YYYY-MM-DD hh:mm:ss) UTC,Instrument flags,Ambient pressure (hPa),Sample flow (lpm),Bypass flow (lpm),Sample temperature (°C),Ambient temperature (°C),ASC tube jacket temperature (°C),LED temperature (°C),Box temperature (°C),Sample RH (%),Span deviation,Mass concentration (μg/m³),Mass concentration (μg/m³),Mass concentration (μg/m³)
DateTimeUTC,F1_M11,P_M11,Q1_M11,Q2_M11,T1_M11,T2_M11,T3_M11,T4_M11,T5_M11,U1_M11,ZSPAN_M11,X0_M11,X2_M11,X1_M11
2022-01-26 10:00:00,,0825.6,5.00,0.00,21.9,21.3,00.0,30.9,23.4,08.5,0000.0,0006.16,0004.50,0004.42
2022-01-26 10:01:00,,0825.5,5.00,0.00,21.8,21.1,00.0,30.9,23.3,08.6,0000.0,0006.18,0004.50,0004.41
2022-01-26 10:02:00,,0825.5,5.00,0.00,21.7,21.0,00.0,30.9,23.2,08.6,0000.0,0006.13,0004.48,0004.40
2022-01-26 10:03:00,,0825.5,5.00,0.00,21.7,21.3,00.0,30.9,23.3,08.6,0000.0,0006.14,0004.48,0004.39
2022-01-26 10:04:00,,0825.6,5.01,0.00,21.9,22.0,00.0,30.9,23.6,08.5,0000.0,0006.13,0004.48,0004.38
2022-01-26 10:05:00,,0825.6,5.00,0.00,22.0,22.7,00.0,31.0,23.9,08.5,0000.0,0006.15,0004.47,0004.37
2022-01-26 10:06:00,,0825.6,5.01,0.00,22.1,23.0,00.0,31.0,24.0,08.4,0000.0,0006.06,0004.45,0004.36
2022-01-26 10:07:00,,0825.6,4.99,0.00,22.1,22.6,00.0,31.0,24.0,08.4,0000.0,0005.98,0004.42,0004.35
2022-01-26 10:08:00,,0825.5,4.98,0.00,22.1,22.1,00.0,31.0,23.8,08.4,0000.0,0006.80,0004.41,0004.33
2022-01-26 10:09:00,,0825.5,5.01,0.00,22.0,21.8,00.0,31.0,23.6,08.5,0000.0,0006.75,0004.39,0004.32
2022-01-26 10:10:00,,0825.5,5.00,0.00,21.9,21.5,00.0,31.0,23.5,08.5,0000.0,0006.68,0004.38,0004.31
2022-01-26 10:11:00,,0825.5,5.00,0.00,21.8,21.2,00.0,30.9,23.3,08.5,0000.0,0006.63,0004.36,0004.29
2022-01-26 10:12:00,,0825.5,5.00,0.00,21.8,21.0,00.0,30.9,23.2,08.5,0000.0,0006.61,0004.36,0004.29
2022-01-26 10:13:00,,0825.5,5.00,0.00,21.7,20.9,00.0,30.9,23.2,08.5,0000.0,0006.67,0004.36,0004.29
2022-01-26 10:14:00,,0825.5,5.00,0.00,21.7,21.5,00.0,30.9,23.3,08.4,0000.0,0006.74,0004.35,0004.28
2022-01-26 10:15:00,,0825.4,5.00,0.00,21.9,22.3,00.0,30.9,23.6,08.4,0000.0,0006.69,0004.34,0004.27
2022-01-26 10:16:00,,0825.5,5.01,0.00,22.0,22.9,00.0,31.0,23.9,08.4,0000.0,0006.67,0004.33,0004.28
2022-01-26 10:17:00,,0825.4,5.00,0.00,22.1,22.8,00.0,31.0,24.0,08.4,0000.0,0006.70,0004.34,0004.28
2022-01-26 10:18:00,,0825.4,5.00,0.00,22.1,22.4,00.0,31.0,23.9,08.3,0000.0,0006.67,0004.33,0004.27
2022-01-26 10:19:00,,0825.4,5.00,0.00,22.0,22.0,00.0,31.0,23.7,08.3,0000.0,0006.14,0004.32,0004.27
2022-01-26 10:20:00,,0825.4,5.00,0.00,21.9,21.6,00.0,31.0,23.5,08.3,0000.0,0005.77,0004.32,0004.27
2022-01-26 10:21:00,,0825.4,5.00,0.00,21.9,21.3,00.0,30.9,23.4,08.4,0000.0,0005.82,0004.33,0004.28
2022-01-26 10:22:00,,0825.4,5.00,0.00,21.8,21.1,00.0,30.9,23.3,08.4,0000.0,0005.87,0004.35,0004.29
2022-01-26 10:23:00,,0825.3,5.01,0.00,21.7,20.9,00.0,30.9,23.2,08.4,0000.0,0005.99,0004.38,0004.30
2022-01-26 10:24:00,,0825.4,5.00,0.00,21.7,21.0,00.0,30.9,23.2,08.5,0000.0,0005.98,0004.39,0004.32
2022-01-26 10:25:00,,0825.3,5.00,0.00,21.8,21.7,00.0,30.9,23.5,08.5,0000.0,0005.91,0004.42,0004.35
2022-01-26 10:26:00,,0825.3,5.00,0.00,21.9,22.5,00.0,30.9,23.8,08.5,0000.0,0005.98,0004.44,0004.38
2022-01-26 10:27:00,,0825.3,5.00,0.00,22.1,23.0,00.0,31.0,24.0,08.4,0000.0,0006.02,0004.47,0004.40
2022-01-26 10:28:00,,0825.3,5.00,0.00,22.1,22.7,00.0,31.0,24.0,08.5,0000.0,0006.09,0004.51,0004.44
2022-01-26 10:29:00,,0825.2,4.99,0.00,22.1,22.3,00.0,31.0,23.9,08.5,0000.0,0006.17,0004.55,0004.48
2022-01-26 10:30:00,,0825.3,5.01,0.00,22.1,22.0,00.0,31.0,23.7,08.5,0000.0,0006.30,0004.62,0004.55
2022-01-26 10:31:00,,0825.2,5.00,0.00,22.0,21.7,00.0,31.0,23.6,08.6,0000.0,0006.42,0004.67,0004.60
2022-01-26 10:32:00,,0825.2,5.00,0.00,21.9,21.5,00.0,31.0,23.5,08.6,0000.0,0006.49,0004.72,0004.65
2022-01-26 10:33:00,,0825.2,4.99,0.00,21.9,21.3,00.0,30.9,23.4,08.7,0000.0,0006.56,0004.77,0004.70
2022-01-26 10:34:00,,0825.2,5.00,0.00,21.8,21.2,00.0,30.9,23.3,08.7,0000.0,0006.57,0004.81,0004.75
2022-01-26 10:35:00,,0825.3,5.01,0.00,21.8,21.1,00.0,30.9,23.3,08.8,0000.0,0006.64,0004.85,0004.80
2022-01-26 10:36:00,,0825.2,4.99,0.00,21.8,21.8,00.0,30.9,23.5,08.7,0000.0,0006.68,0004.88,0004.83
2022-01-26 10:37:00,,0825.2,5.02,0.00,22.0,22.5,00.0,31.0,23.8,08.6,0000.0,0006.75,0004.93,0004.89
2022-01-26 10:38:00,,0825.2,4.99,0.00,22.1,23.0,00.0,31.0,24.0,08.6,0000.0,0006.81,0004.97,0004.92
2022-01-26 10:39:00,,0825.2,5.00,0.00,22.2,22.9,00.0,31.0,24.1,08.5,0000.0,0006.90,0004.97,0004.92
2022-01-26 10:40:00,,0825.1,5.00,0.00,22.2,22.6,00.0,31.0,24.0,08.4,0000.0,0006.90,0004.96,0004.90
2022-01-26 10:41:00,,0825.1,4.99,0.00,22.2,22.4,00.0,31.0,23.9,08.4,0000.0,0006.86,0004.93,0004.86
2022-01-26 10:42:00,,0825.1,5.01,0.00,22.2,22.1,00.0,31.0,23.9,08.4,0000.0,0006.83,0004.90,0004.84
2022-01-26 10:43:00,,0825.1,5.00,0.00,22.1,21.9,00.0,31.0,23.8,08.3,0000.0,0006.77,0004.86,0004.79
2022-01-26 10:44:00,,0825.0,5.00,0.00,22.1,21.7,00.0,31.0,23.7,08.3,0000.0,0006.76,0004.83,0004.76
2022-01-26 10:45:00,,0825.0,4.99,0.00,22.0,21.5,00.0,31.0,23.6,08.3,0000.0,0006.68,0004.79,0004.73
2022-01-26 10:46:00,,0825.1,5.01,0.00,22.0,21.3,00.0,31.0,23.5,08.3,0000.0,0006.62,0004.76,0004.70
2022-01-26 10:47:00,,0825.1,4.99,0.00,21.9,21.2,00.0,31.0,23.4,08.3,0000.0,0006.60,0004.75,0004.69
2022-01-26 10:48:00,,0825.1,5.00,0.00,21.9,21.7,00.0,31.0,23.6,08.3,0000.0,0006.54,0004.72,0004.65
2022-01-26 10:49:00,,0825.1,4.99,0.00,22.1,22.4,00.0,31.0,23.8,08.3,0000.0,0006.48,0004.69,0004.62
2022-01-26 10:50:00,,0825.1,5.01,0.00,22.2,23.1,00.0,31.1,24.1,08.2,0000.0,0006.46,0004.69,0004.63
2022-01-26 10:51:00,,0825.1,5.00,0.00,22.3,23.1,00.0,31.1,24.2,08.1,0000.0,0006.54,0004.71,0004.64
2022-01-26 10:52:00,,0825.1,4.99,0.00,22.3,22.7,00.0,31.1,24.1,08.1,0000.0,0006.53,0004.71,0004.65
2022-01-26 10:53:00,,0825.1,5.01,0.00,22.2,22.4,00.0,31.1,24.0,08.1,0000.0,0006.52,0004.72,0004.66
2022-01-26 10:54:00,,0825.1,5.00,0.00,22.2,22.0,00.0,31.1,23.8,08.2,0000.0,0006.56,0004.74,0004.69
2022-01-26 10:55:00,,0824.9,5.00,0.00,22.1,21.7,00.0,31.1,23.7,08.1,0000.0,0006.54,0004.75,0004.70
2022-01-26 10:56:00,,0824.9,4.99,0.00,22.0,21.5,00.0,31.1,23.6,08.2,0000.0,0006.58,0004.77,0004.72
2022-01-26 10:57:00,,0824.9,5.00,0.00,22.0,21.3,00.0,31.1,23.5,08.3,0000.0,0006.66,0004.79,0004.73
2022-01-26 10:58:00,,0824.9,5.01,0.00,21.9,21.1,00.0,31.0,23.4,08.4,0000.0,0006.69,0004.79,0004.72
2022-01-26 10:59:00,,0824.9,5.02,0.00,21.8,21.1,00.0,31.0,23.3,08.4,0000.0,0006.66,0004.78,0004.72
